Sturgeon Bay, WI

9:13 AM CDT on April 29, 2017 (GMT -0500)
Door County Cherryland

Weather History for KSUE - November, 2012

Change the Weather History Date:

Monday, November 26, 2012

  Actual Average Record
Temperature  
Mean Temperature 22 °F -  
Max Temperature 26 °F 38 °F 60 °F (1914)
Min Temperature 19 °F 27 °F 8 °F (1932)
Degree Days  
Heating Degree Days 42    
Moisture  
Dew Point 13 °F    
Average Humidity 61    
Maximum Humidity 69    
Minimum Humidity 50    
Precipitation  
Precipitation 0.00 in - - ()
Sea Level Pressure  
Sea Level Pressure 30.20 in    
Wind  
Wind Speed 11 mph (NW)    
Max Wind Speed 16 mph    
Max Gust Speed 20 mph    
Visibility 10 miles    
Events      
Averages and records for this station are not official NWS values.
T = Trace of Precipitation, MM = Missing Value Source: NWS Daily Summary

Daily Weather History Graph

Daily Weather History Graph

Search for Another Location

Airport or City:

Trip Planner

Search our weather history database for the weather conditions in past years. The results will help you decide how hot, cold, wet, or windy it might be!

Date:

Astronomy

Nov. 26, 2012 Rise Set
Actual Time 7:01 AM CST 4:12 PM CST
Civil Twilight 6:29 AM CST 4:44 PM CST
Nautical Twilight 5:52 AM CST 5:21 PM CST
Astronomical Twilight 5:17 AM CST 5:56 PM CST
Moon 3:06 PM CST (11/26) 5:08 AM CST (11/26)
Length of Visible Light 10h 15m
Length of Day
9h 10m
Waxing Gibbous, 97% of the Moon is Illuminated
Nov 26
Waxing Gibbous
Nov 28
Full
Dec 6
Last Quarter
Dec 13
New
Dec 19
First Quarter

Hourly Weather History & Observations

Time (CST) Temp. Windchill Dew Point Humidity Pressure Visibility Wind Dir Wind Speed Gust Speed Precip Events Conditions
12:15 AM 26.6 °F 16.8 °F 12.2 °F 55% 30.04 in 10.0 mi West 10.4 mph - N/A   Mostly Cloudy
12:35 AM 26.6 °F 17.5 °F 15.8 °F 64% 30.04 in 10.0 mi West 9.2 mph 16.1 mph N/A   Overcast
12:55 AM 26.6 °F 15.7 °F 15.8 °F 64% 30.04 in 10.0 mi WNW 12.7 mph - N/A   Overcast
1:15 AM 26.6 °F 16.8 °F 15.8 °F 64% 30.04 in 10.0 mi WNW 10.4 mph - N/A   Overcast
1:35 AM 26.6 °F 17.5 °F 15.8 °F 64% 30.05 in 10.0 mi WNW 9.2 mph - N/A   Overcast
1:55 AM 26.6 °F 15.7 °F 15.8 °F 64% 30.06 in 10.0 mi WNW 12.7 mph - N/A   Overcast
2:15 AM 26.6 °F 16.2 °F 15.8 °F 64% 30.06 in 10.0 mi WNW 11.5 mph 17.3 mph N/A   Overcast
2:35 AM 26.6 °F 16.2 °F 15.8 °F 64% 30.07 in 10.0 mi West 11.5 mph - N/A   Overcast
2:55 AM 26.6 °F 16.2 °F 15.8 °F 64% 30.07 in 10.0 mi WNW 11.5 mph 16.1 mph N/A   Overcast
3:15 AM 26.6 °F 15.2 °F 15.8 °F 64% 30.07 in 10.0 mi WNW 13.8 mph 19.6 mph N/A   Overcast
3:35 AM 26.6 °F 15.7 °F 17.6 °F 69% 30.08 in 10.0 mi WNW 12.7 mph 17.3 mph N/A   Overcast
3:55 AM 26.6 °F 16.2 °F 17.6 °F 69% 30.08 in 10.0 mi WNW 11.5 mph 16.1 mph N/A   Overcast
4:15 AM 26.6 °F 16.8 °F 17.6 °F 69% 30.09 in 10.0 mi WNW 10.4 mph 18.4 mph N/A   Overcast
4:35 AM 26.6 °F 17.5 °F 17.6 °F 69% 30.10 in 10.0 mi WNW 9.2 mph - N/A   Overcast
4:55 AM 26.6 °F 17.5 °F 17.6 °F 69% 30.10 in 10.0 mi WNW 9.2 mph 17.3 mph N/A   Overcast
5:15 AM 26.6 °F 16.8 °F 17.6 °F 69% 30.10 in 10.0 mi WNW 10.4 mph 16.1 mph N/A   Overcast
5:35 AM 26.6 °F 16.2 °F 17.6 °F 69% 30.10 in 10.0 mi WNW 11.5 mph 17.3 mph N/A   Overcast
5:55 AM 26.6 °F 16.2 °F 17.6 °F 69% 30.11 in 10.0 mi WNW 11.5 mph 18.4 mph N/A   Overcast
6:15 AM 26.6 °F 15.7 °F 15.8 °F 64% 30.11 in 10.0 mi NW 12.7 mph - N/A   Overcast
6:35 AM 26.6 °F 16.2 °F 15.8 °F 64% 30.12 in 10.0 mi NW 11.5 mph 17.3 mph N/A   Overcast
6:55 AM 26.6 °F 17.5 °F 15.8 °F 64% 30.13 in 10.0 mi NW 9.2 mph - N/A   Mostly Cloudy
7:15 AM 26.6 °F 18.2 °F 15.8 °F 64% 30.13 in 10.0 mi NW 8.1 mph - N/A   Overcast
7:35 AM 26.6 °F 16.8 °F 15.8 °F 64% 30.15 in 10.0 mi WNW 10.4 mph - N/A   Overcast
7:55 AM 26.6 °F 14.7 °F 15.8 °F 64% 30.15 in 10.0 mi WNW 15.0 mph 19.6 mph N/A   Overcast
8:15 AM 26.6 °F 16.8 °F 15.8 °F 64% 30.16 in 10.0 mi WNW 10.4 mph - N/A   Overcast
8:35 AM 26.6 °F 15.2 °F 17.6 °F 69% 30.17 in 10.0 mi WNW 13.8 mph - N/A   Overcast
8:55 AM 26.6 °F 15.7 °F 15.8 °F 64% 30.18 in 10.0 mi WNW 12.7 mph 19.6 mph N/A   Overcast
9:15 AM 26.6 °F 16.8 °F 15.8 °F 64% 30.19 in 10.0 mi WNW 10.4 mph - N/A   Overcast
9:35 AM 26.6 °F 15.7 °F 15.8 °F 64% 30.20 in 10.0 mi NW 12.7 mph 18.4 mph N/A   Overcast
9:55 AM 26.6 °F 14.3 °F 12.2 °F 55% 30.20 in 10.0 mi WNW 16.1 mph - N/A   Overcast
10:35 AM 26.6 °F 15.7 °F 12.2 °F 55% 30.21 in 10.0 mi WNW 12.7 mph 17.3 mph N/A   Mostly Cloudy
10:55 AM 26.6 °F 16.2 °F 14.0 °F 59% 30.21 in 10.0 mi NNW 11.5 mph - N/A   Overcast
11:15 AM 26.6 °F 16.2 °F 12.2 °F 55% 30.21 in 10.0 mi NW 11.5 mph 19.6 mph N/A   Overcast
11:35 AM 26.6 °F 16.8 °F 12.2 °F 55% 30.20 in 10.0 mi NNW 10.4 mph - N/A   Overcast
11:55 AM 26.6 °F 16.2 °F 12.2 °F 55% 30.21 in 10.0 mi NNW 11.5 mph 17.3 mph N/A   Overcast
12:15 PM 24.8 °F 14.0 °F 12.2 °F 59% 30.22 in 10.0 mi NNW 11.5 mph 17.3 mph N/A   Overcast
12:35 PM 24.8 °F 14.6 °F 12.2 °F 59% 30.23 in 10.0 mi NW 10.4 mph - N/A   Overcast
12:55 PM 24.8 °F 14.0 °F 10.4 °F 54% 30.23 in 10.0 mi NW 11.5 mph 16.1 mph N/A   Overcast
1:15 PM 24.8 °F 12.9 °F 12.2 °F 59% 30.22 in 10.0 mi WNW 13.8 mph 19.6 mph N/A   Overcast
1:35 PM 24.8 °F 13.4 °F 10.4 °F 54% 30.22 in 10.0 mi NW 12.7 mph 18.4 mph N/A   Overcast
1:55 PM 24.8 °F 13.4 °F 8.6 °F 50% 30.22 in 10.0 mi NW 12.7 mph - N/A   Overcast
2:15 PM 24.8 °F 14.6 °F 8.6 °F 50% 30.22 in 10.0 mi WNW 10.4 mph 17.3 mph N/A   Mostly Cloudy
2:35 PM 24.8 °F 16.1 °F 8.6 °F 50% 30.22 in 10.0 mi NW 8.1 mph - N/A   Scattered Clouds
2:55 PM 24.8 °F 14.6 °F 8.6 °F 50% 30.23 in 10.0 mi NW 10.4 mph - N/A   Partly Cloudy
3:15 PM 24.8 °F 16.1 °F 8.6 °F 50% 30.24 in 10.0 mi NW 8.1 mph - N/A   Mostly Cloudy
3:35 PM 24.8 °F 14.6 °F 10.4 °F 54% 30.24 in 10.0 mi NW 10.4 mph - N/A   Overcast
3:55 PM 24.8 °F 16.1 °F 8.6 °F 50% 30.24 in 10.0 mi NW 8.1 mph - N/A   Overcast
4:15 PM 24.8 °F 16.9 °F 8.6 °F 50% 30.25 in 10.0 mi NNW 6.9 mph - N/A   Overcast
4:35 PM 24.8 °F 16.9 °F 8.6 °F 50% 30.25 in 10.0 mi NW 6.9 mph - N/A   Overcast
4:55 PM 24.8 °F 15.3 °F 8.6 °F 50% 30.26 in 10.0 mi WNW 9.2 mph - N/A   Overcast
5:15 PM 24.8 °F 15.3 °F 8.6 °F 50% 30.27 in 10.0 mi WNW 9.2 mph - N/A   Mostly Cloudy
5:35 PM 24.8 °F 14.6 °F 8.6 °F 50% 30.27 in 10.0 mi WNW 10.4 mph - N/A   Partly Cloudy
5:55 PM 23.0 °F 12.4 °F 8.6 °F 54% 30.27 in 10.0 mi NW 10.4 mph - N/A   Clear
6:15 PM 23.0 °F 12.4 °F 10.4 °F 59% 30.29 in 10.0 mi NW 10.4 mph - N/A   Clear
6:35 PM 23.0 °F 12.4 °F 8.6 °F 54% 30.29 in 10.0 mi NW 10.4 mph - N/A   Clear
6:55 PM 23.0 °F 13.1 °F 10.4 °F 59% 30.30 in 10.0 mi NW 9.2 mph - N/A   Clear
7:15 PM 21.2 °F 9.5 °F 10.4 °F 63% 30.30 in 10.0 mi NW 11.5 mph 17.3 mph N/A   Clear
7:35 PM 21.2 °F 11.7 °F 10.4 °F 63% 30.31 in 10.0 mi NW 8.1 mph - N/A   Clear
7:55 PM 21.2 °F 10.9 °F 10.4 °F 63% 30.32 in 10.0 mi NW 9.2 mph - N/A   Clear
8:15 PM 21.2 °F 10.9 °F 10.4 °F 63% 30.32 in 10.0 mi NW 9.2 mph - N/A   Clear
8:35 PM 21.2 °F 11.7 °F 10.4 °F 63% 30.32 in 10.0 mi NW 8.1 mph - N/A   Clear
8:55 PM 21.2 °F 10.9 °F 10.4 °F 63% 30.32 in 10.0 mi WNW 9.2 mph - N/A   Clear
9:15 PM 21.2 °F 11.7 °F 10.4 °F 63% 30.33 in 10.0 mi NW 8.1 mph - N/A   Clear
9:35 PM 21.2 °F 12.6 °F 10.4 °F 63% 30.32 in 10.0 mi NW 6.9 mph - N/A   Clear
9:55 PM 19.4 °F 10.4 °F 10.4 °F 68% 30.32 in 10.0 mi NW 6.9 mph - N/A   Clear
10:15 PM 19.4 °F 11.5 °F 10.4 °F 68% 30.31 in 10.0 mi NW 5.8 mph - N/A   Clear
10:35 PM 19.4 °F 12.8 °F 10.4 °F 68% 30.31 in 10.0 mi WNW 4.6 mph - N/A   Clear
10:55 PM 19.4 °F 10.4 °F 10.4 °F 68% 30.32 in 10.0 mi WNW 6.9 mph - N/A   Clear
11:15 PM 19.4 °F 11.5 °F 10.4 °F 68% 30.32 in 10.0 mi WNW 5.8 mph - N/A   Clear
11:35 PM 19.4 °F 11.5 °F 10.4 °F 68% 30.32 in 10.0 mi NW 5.8 mph - N/A   Clear
11:55 PM 19.4 °F 12.8 °F 8.6 °F 63% 30.31 in 10.0 mi WNW 4.6 mph - N/A   Clear